{"data":{"norad_id":40887,"intl_designator":"2015-044A","name":"MUOS-4","alt_names":[],"object_type":"PAYLOAD","status":"ACTIVE","operator":null,"country":"US","launch_date":"2015-09-02","launch_site_code":"AFETR","launch_vehicle":null,"mission":null,"orbit_class":"UNKNOWN","rcs_meters":99.6156,"size_class":null,"mass_kg":null,"dimensions":null,"purposes":["comms"],"wikipedia_slug":null,"has_3d_model":false,"image_url":null,"decayed_at":null,"tle_current":{"epoch":"2026-05-25T04:06:00.213120Z","epoch_age_seconds":73533,"freshness":"FRESH","line1":"1 40887U 15044A   26145.17083580 -.00000096  00000+0  00000+0 0  9995","line2":"2 40887   4.2888  42.1114 0059982   3.6340 333.5154  1.00272577 39323","mean_motion":1.00272577,"eccentricity":0.0059982,"inclination_deg":4.2888,"raan_deg":42.1114,"arg_perigee_deg":3.634,"mean_anomaly_deg":333.5154,"bstar":0,"rev_number":3932,"period_min":1436.0855610602,"perigee_km":35533.461772802,"apogee_km":36039.284099802,"semimajor_km":42164.509936302,"source":"CELESTRAK","updated_at":"2026-05-25T13:38:13.992369Z"}}}